STARLINK-33551, 62110

Orbit data source: Space-Track

STARLINK-33551, 62110 is a payload satellite owned by SpaceX/Seattle (US) in LEO that was launched on Mon, 25 Nov 2024 UTC via an FALCON 9 launch vehicle from the Air Force Eastern Test Range (AFETR). Payload-class satellites include a variety of spacecraft equipped with specific instruments for various scientific and technological missions. These include communications satellites like Starlink; space stations such as the ISS; scientific satellites like the Hubble; Earth observation satellites from companies like Planet Labs, Umbra, and HawkEye 360; GPS; miniature CubeSats for education and research; and military/defense satellites.

Loading next visibility...
Identifier
62110, 2024-220Y
Orbit
LEO
Country
Flag of USUS
Related business
Manufacturer
SpaceX/Seattle
Mission
Operational Commercial Communications
Bus & Motor
STARLINK V2MO, Unknown motor
Mass
530 kg wet, ~500 kg dry
Launch date (UTC)
2024-11-25 (2 years ago)
Launch vehicle
FALCON 9
Launch site
Air Force Eastern Test Range (AFETR)
Object type
Payload
Rocket body
Debris
Shape & HBR
Box + 2 Pan, 17.7 m
Radar Cross Section
36.964 m², Large (>1 m²)

Expand to show TLE details & history
Last TLE update: 1 day ago

TLE from 1 day ago
0 STARLINK-33551
1 62110U 24220Y   26170.84204055  .00003970  00000-0  15370-3 0  9992
2 62110  43.0021 348.6799 0001357 279.1304  80.9394 15.27584525 88812
Epoch: 2026-06-19T20:12Z
TLE epoch observation values (Epoch: 2026-06-19T20:12:32.303Z)
Latitude
-0.00003°
Longitude
137.48006°
Altitude
482.665 km
Speed
7.626 km/s
True Right ascension
23h 14m 43s
True Declination
0° 00' 00"
Sunlit
Object was in daylight at epoch
Visualization orbit readout
Latitude
Unknown
Longitude
Unknown
Altitude
Unknown
Speed
Unknown
Apparent Right ascension
Unknown
Apparent Declination
Unknown
Sunlit
N/A
Visualization observer readout
Local Sidereal Time
07:18:08
Azimuth
Unknown
Elevation
Unknown
Doppler factor
Unknown
Orbital elements
Apogee altitude
485.912 km
Perigee altitude
484.049 km
Semi-major axis
6,863.117 km
Eccentricity
0.00014
Inclination
43.0021°
RAAN
348.6799°
Arg. of periapsis
279.1304°
True anomaly
80.95476°
Mean anomaly
80.9394°
Eccentric anomaly
80.94708°
Mean motion
3.81734 °/min
Orbital period
94.31 mins
BSTAR
0.0001537
Loading maneuver chart data...
Computing Atmospheric mass density...
Loading historical data...
Loading historical data...
Loading historical data...
Loading historical data...
Loading historical data...
Loading historical data...
Loading historical data...

Documentation

Showing up to 5 results
|